KE8DDT-7 Weather Reports


Display with metric or nautical units.
time (UTC)temp
F
wind
direction
speed
MPH
gust
MPH
rain 1hr
in
rain 24hr
in
rain mn
in
humidity
%
barometer
mb
20260502222339 47 0 0.0 1.0 0.00 0.00 0.00 46 1007.9
20260502221839 47 0 0.0 1.0 0.00 0.00 0.00 47 1007.9
20260502221340 47 0 0.0 1.0 0.00 0.00 0.00 46 1007.9
20260502220430 47 0 0.0 2.0 0.00 0.00 0.00 46 1007.9
20260502215930 47 0 0.0 10.0 0.00 0.00 0.00 46 1007.8
20260502215432 47 0 0.0 10.0 0.00 0.00 0.00 46 1007.9
20260502214930 47 0 0.0 1.0 0.00 0.00 0.00 47 1007.9
20260502214430 47 0 0.0 1.0 0.00 0.00 0.00 46 1007.9
20260502213930 47 0 0.0 2.0 0.00 0.00 0.00 45 1007.9
20260502213430 47 0 0.0 2.0 0.00 0.00 0.00 46 1007.9
20260502212930 47 0 0.0 2.0 0.00 0.00 0.00 45 1007.9
20260502212431 47 0 0.0 2.0 0.00 0.00 0.00 45 1007.9
20260502211430 47 0 0.0 3.0 0.00 0.00 0.00 46 1008.0
20260502210930 47 0 0.0 4.0 0.00 0.00 0.00 45 1008.0
20260502210430 47 0 0.0 7.0 0.00 0.00 0.00 45 1008.1
20260502205930 48 0 0.0 7.0 0.00 0.00 0.00 45 1008.1
20260502205341 48 0 0.0 1.0 0.00 0.00 0.00 46 1008.0
20260502204841 48 0 0.0 2.0 0.00 0.00 0.00 45 1008.1
20260502204341 48 0 0.0 2.0 0.00 0.00 0.00 47 1008.1
20260502203841 47 0 0.0 2.0 0.00 0.00 0.00 47 1008.1
20260502203341 47 0 0.0 2.0 0.00 0.00 0.00 46 1008.2
20260502202841 46 0 0.0 1.0 0.00 0.00 0.00 47 1008.2
20260502202341 46 0 0.0 1.0 0.00 0.00 0.00 46 1008.3
20260502201841 46 0 0.0 1.0 0.00 0.00 0.00 46 1008.4
20260502201341 46 0 0.0 0.0 0.00 0.00 0.00 46 1008.4
20260502200841 47 0 0.0 0.0 0.00 0.00 0.00 45 1008.5
20260502200118 47 0 0.0 7.0 0.00 0.00 0.00 46 1008.5
20260502195618 47 0 0.0 7.0 0.00 0.00 0.00 44 1008.6
20260502194618 47 0 0.0 0.0 0.00 0.00 0.00 46 1008.7
20260502194118 47 0 0.0 2.0 0.00 0.00 0.00 45 1008.7
20260502193618 46 0 0.0 2.0 0.00 0.00 0.00 46 1008.7
20260502193118 46 0 0.0 5.0 0.00 0.00 0.00 46 1008.8
20260502192618 47 0 0.0 5.0 0.00 0.00 0.00 46 1008.8
20260502192118 47 0 0.0 1.0 0.00 0.00 0.00 46 1008.9
20260502191618 47 0 0.0 9.0 0.00 0.00 0.00 46 1008.9
20260502191118 46 0 0.0 9.0 0.00 0.00 0.00 46 1009.0
20260502190618 46 0 0.0 3.0 0.00 0.00 0.00 45 1009.0
20260502190118 46 0 0.0 5.0 0.00 0.00 0.00 45 1009.0
20260502185618 46 0 0.0 5.0 0.00 0.00 0.00 44 1009.0
20260502184618 47 0 0.0 7.0 0.00 0.00 0.00 43 1009.0
20260502184118 47 0 0.0 7.0 0.00 0.00 0.00 43 1009.1
20260502183618 47 0 0.0 2.0 0.00 0.00 0.00 45 1009.1
20260502183118 46 0 0.0 1.0 0.00 0.00 0.00 46 1009.1
20260502182118 46 0 0.0 4.0 0.00 0.00 0.00 43 1009.2
20260502181618 47 0 0.0 4.0 0.00 0.00 0.00 42 1009.2
20260502181118 47 0 0.0 4.0 0.00 0.00 0.00 43 1009.2
20260502180618 47 0 0.0 1.0 0.00 0.00 0.00 44 1009.2
20260502180118 46 0 0.0 1.0 0.00 0.00 0.00 43 1009.3
20260502170118 46 0 0.0 3.0 0.00 0.00 0.00 45 1009.6
20260502164119 44 0 0.0 1.0 0.00 0.00 0.00 49 1009.8
20260502163618 44 0 0.0 1.0 0.00 0.00 0.00 47 1009.9
20260502163118 44 0 0.0 1.0 0.00 0.00 0.00 48 1009.8
20260502162618 44 0 0.0 0.0 0.00 0.00 0.00 49 1009.9
20260502162118 44 0 0.0 1.0 0.00 0.00 0.00 47 1009.8
20260502161618 44 0 0.0 1.0 0.00 0.00 0.00 49 1009.8
20260502161027 44 0 0.0 4.0 0.00 0.00 0.00 47 1010.0
20260502160527 44 0 0.0 4.0 0.00 0.00 0.00 47 1010.0
20260502151850 42 0 0.0 3.0 0.00 0.00 0.00 50 1009.9
20260502151350 42 0 0.0 3.0 0.00 0.00 0.00 50 1009.9
20260502150850 43 0 0.0 4.0 0.00 0.00 0.00 50 1009.9
20260502150350 43 0 0.0 4.0 0.00 0.00 0.00 49 1009.8
20260502130538 40 0 0.0 1.0 0.00 0.00 0.00 66 1010.1
20260502123157 37 0 0.0 2.0 0.00 0.00 0.00 70 1009.9
20260502122657 37 0 0.0 1.0 0.00 0.00 0.00 71 1009.9
20260502122157 36 0 0.0 0.0 0.00 0.00 0.00 73 1009.9
20260502121657 36 0 0.0 0.0 0.00 0.00 0.00 73 1009.9
20260502120439 35 0 0.0 2.0 0.00 0.00 0.00 74 1009.7
20260502115438 34 0 0.0 0.0 0.00 0.00 0.00 75 1009.7
20260502113945 34 0 0.0 1.0 0.00 0.00 0.00 76 1009.6
20260502113445 34 0 0.0 1.0 0.00 0.00 0.00 76 1009.6
20260502112945 33 0 0.0 1.0 0.00 0.00 0.00 76 1009.6
20260502111945 33 0 0.0 2.0 0.00 0.00 0.00 76 1009.5
20260502110945 33 0 0.0 0.0 0.00 0.00 0.00 76 1009.4
20260502105945 33 0 0.0 0.0 0.00 0.00 0.00 76 1009.4
20260502105445 33 0 0.0 0.0 0.00 0.00 0.00 75 1009.3
20260502104945 33 0 0.0 0.0 0.00 0.00 0.00 75 1009.3
20260502104136 34 0 0.0 0.0 0.00 0.00 0.00 75 1009.3
20260502103636 34 0 0.0 0.0 0.00 0.00 0.00 74 1009.3
20260502103137 34 0 0.0 0.0 0.00 0.00 0.00 74 1009.3
20260502102636 34 0 0.0 1.0 0.00 0.00 0.00 74 1009.3
20260502101636 34 0 0.0 0.0 0.00 0.00 0.00 73 1009.2
20260502101137 34 0 0.0 0.0 0.00 0.00 0.00 73 1009.2
20260502100636 34 0 0.0 0.0 0.00 0.00 0.00 72 1009.2
20260502100136 34 0 0.0 0.0 0.00 0.00 0.00 72 1009.1
20260502091137 36 0 0.0 0.0 0.00 0.00 0.00 70 1008.9
20260502090636 36 0 0.0 1.0 0.00 0.00 0.00 70 1008.9
20260502090136 36 0 0.0 1.0 0.00 0.00 0.00 70 1008.9
20260502070758 39 0 0.0 0.0 0.00 0.00 0.00 65 1008.4
20260502070257 39 0 0.0 0.0 0.00 0.00 0.00 64 1008.5
20260502065757 39 0 0.0 0.0 0.00 0.00 0.00 64 1008.5
20260502065258 39 0 0.0 0.0 0.00 0.00 0.00 64 1008.5
20260502064758 39 0 0.0 0.0 0.00 0.00 0.00 64 1008.6
20260502064258 39 0 0.0 1.0 0.00 0.00 0.00 64 1008.6
20260502063757 39 0 0.0 2.0 0.00 0.00 0.00 64 1008.6
20260502063258 39 0 0.0 2.0 0.00 0.00 0.00 64 1008.7
20260502062757 39 0 0.0 0.0 0.00 0.00 0.00 66 1008.7
20260502062257 39 0 0.0 0.0 0.00 0.00 0.00 66 1008.7
20260502061758 39 0 0.0 0.0 0.00 0.00 0.00 65 1008.7
20260502061257 39 0 0.0 0.0 0.00 0.00 0.00 66 1008.7
20260502060757 40 0 0.0 0.0 0.00 0.00 0.00 67 1008.8
20260502060257 40 0 0.0 0.0 0.00 0.00 0.00 67 1008.8
20260502055758 40 0 0.0 0.0 0.00 0.00 0.00 67 1008.8
20260502055257 40 0 0.0 0.0 0.00 0.00 0.00 66 1008.9
20260502054759 40 0 0.0 0.0 0.00 0.00 0.00 65 1008.9
20260502054257 40 0 0.0 0.0 0.00 0.00 0.00 66 1008.9
20260502053757 40 0 0.0 0.0 0.00 0.00 0.00 66 1008.9
20260502053258 40 0 0.0 0.0 0.00 0.00 0.00 66 1008.9
20260502052758 40 0 0.0 0.0 0.00 0.00 0.00 66 1008.9
20260502052257 40 0 0.0 0.0 0.00 0.00 0.00 66 1008.9
20260502051758 40 0 0.0 0.0 0.00 0.00 0.00 66 1008.9
20260502051258 40 0 0.0 0.0 0.00 0.00 0.00 67 1008.8
20260502050757 40 0 0.0 1.0 0.00 0.00 0.00 67 1008.8
20260502050257 40 0 0.0 1.0 0.00 0.00 0.00 67 1008.8
20260502045757 40 0 0.0 0.0 0.00 0.00 0.00 68 1008.8
20260502045257 40 0 0.0 0.0 0.00 0.00 0.00 69 1008.8
20260502044758 40 0 0.0 0.0 0.00 0.00 0.00 68 1008.7
20260502044257 40 0 0.0 0.0 0.00 0.00 0.00 69 1008.7
20260502043758 40 0 0.0 1.0 0.00 0.00 0.00 69 1008.7
20260502043257 40 0 0.0 1.0 0.00 0.00 0.00 69 1008.6
20260502042757 40 0 0.0 2.0 0.00 0.00 0.00 69 1008.5
20260502042257 40 0 0.0 2.0 0.00 0.00 0.00 69 1008.4
20260502041758 40 0 0.0 0.0 0.00 0.00 0.00 70 1008.5
20260502041257 40 0 0.0 1.0 0.00 0.00 0.00 71 1008.4
20260502040757 40 0 0.0 1.0 0.00 0.00 0.00 71 1008.3
20260502040258 40 0 0.0 0.0 0.00 0.00 0.00 71 1008.3
20260502035758 40 0 0.0 1.0 0.00 0.00 0.00 71 1008.2
20260502035257 40 0 0.0 1.0 0.00 0.00 0.00 72 1008.1
20260502034257 40 0 0.0 1.0 0.00 0.00 0.00 72 1008.2
20260502033757 40 0 0.0 1.0 0.00 0.00 0.00 71 1008.2
20260502033257 40 0 0.0 1.0 0.00 0.00 0.00 71 1008.1
20260502032759 40 0 0.0 0.0 0.00 0.00 0.00 71 1008.2
20260502032257 40 0 0.0 1.0 0.00 0.00 0.00 70 1008.2
20260502031757 40 0 0.0 1.0 0.00 0.00 0.00 70 1008.1
20260502031257 40 0 0.0 1.0 0.00 0.00 0.00 70 1008.1
20260502030757 40 0 0.0 0.0 0.00 0.00 0.00 70 1008.0
20260502030257 40 0 0.0 0.0 0.00 0.00 0.00 70 1008.0
20260502025759 41 0 0.0 0.0 0.00 0.00 0.00 70 1008.0
20260502025257 41 0 0.0 0.0 0.00 0.00 0.00 70 1008.0
20260502024758 41 0 0.0 0.0 0.00 0.00 0.00 70 1008.1
20260502024257 41 0 0.0 0.0 0.00 0.00 0.00 70 1008.1
20260502023757 41 0 0.0 0.0 0.00 0.00 0.00 70 1008.0
20260502023257 41 0 0.0 0.0 0.00 0.00 0.00 70 1008.0
20260502022759 41 0 0.0 0.0 0.00 0.00 0.00 70 1008.1
20260502022257 41 0 0.0 0.0 0.00 0.00 0.00 70 1008.1
20260502021757 41 0 0.0 0.0 0.00 0.00 0.00 70 1008.1
20260502020639 41 0 0.0 5.0 0.00 0.00 0.00 70 1008.0
20260502015639 41 0 0.0 0.0 0.00 0.00 0.00 70 1007.8
20260502015139 41 0 0.0 0.0 0.00 0.00 0.00 71 1007.8
20260502013957 41 0 0.0 0.0 0.00 0.00 0.00 70 1007.7
20260502013458 41 0 0.0 3.0 0.00 0.00 0.00 70 1007.7
20260502012957 42 0 0.0 3.0 0.00 0.00 0.00 70 1007.6
20260502012457 42 0 0.0 1.0 0.00 0.00 0.00 71 1007.6
20260502011957 42 0 0.0 1.0 0.00 0.00 0.00 70 1007.6
20260502011457 42 0 0.0 0.0 0.00 0.00 0.00 69 1007.6
20260502010957 42 0 0.0 1.0 0.00 0.00 0.00 69 1007.5
20260502010457 42 0 0.0 1.0 0.00 0.00 0.00 69 1007.5
20260502005957 42 0 0.0 0.0 0.00 0.00 0.00 69 1007.4
20260502005457 42 0 0.0 1.0 0.00 0.00 0.00 68 1007.4
20260502004957 43 0 0.0 1.0 0.00 0.00 0.00 67 1007.4
20260502004457 43 0 0.0 0.0 0.00 0.00 0.00 67 1007.4
20260502003957 43 0 0.0 0.0 0.00 0.00 0.00 67 1007.4
20260502003457 43 0 0.0 0.0 0.00 0.00 0.00 67 1007.3
20260502002957 43 0 0.0 2.0 0.00 0.00 0.00 66 1007.3
20260502002457 43 0 0.0 2.0 0.00 0.00 0.00 66 1007.2
20260502001957 43 0 0.0 2.0 0.00 0.00 0.00 66 1007.2
20260502001457 43 0 0.0 0.0 0.00 0.00 0.00 66 1007.2
20260502000957 43 0 0.0 0.0 0.00 0.00 0.00 65 1007.1
20260502000457 43 0 0.0 0.0 0.00 0.00 0.00 66 1007.1
20260501235957 43 0 0.0 0.0 0.00 0.00 0.00 65 1007.1
20260501235457 43 0 0.0 0.0 0.00 0.00 0.00 66 1007.1
20260501234957 43 0 0.0 0.0 0.00 0.00 0.00 66 1007.1
20260501234457 44 0 0.0 0.0 0.00 0.00 0.00 65 1007.1
20260501233457 44 0 0.0 2.0 0.00 0.00 0.00 65 1007.0
20260501232957 44 0 0.0 2.0 0.00 0.00 0.00 65 1006.9
20260501232457 44 0 0.0 1.0 0.00 0.00 0.00 65 1006.9
20260501231957 44 0 0.0 2.0 0.00 0.00 0.00 65 1006.8
20260501231457 44 0 0.0 2.0 0.00 0.00 0.00 64 1006.9
20260501230957 45 0 0.0 4.0 0.00 0.00 0.00 64 1006.8
20260501230457 45 0 0.0 4.0 0.00 0.00 0.00 63 1006.8
20260501225957 45 0 0.0 1.0 0.00 0.00 0.00 62 1006.7
20260501225457 45 0 0.0 1.0 0.00 0.00 0.00 62 1006.7
20260501224957 45 0 0.0 2.0 0.00 0.00 0.00 62 1006.7
20260501224457 45 0 0.0 2.0 0.00 0.00 0.00 61 1006.7
20260501223957 45 0 0.0 2.0 0.00 0.00 0.00 63 1006.7
20260501223457 45 0 0.0 0.0 0.00 0.00 0.00 63 1006.6
20260501222957 45 0 0.0 1.0 0.00 0.00 0.00 63 1006.7